Year,Month,Day,Hour,Minute,Value (Times are PST for insolation in W/m^2)
2014,01,01,00,00,0.00
2014,01,01,00,01,0.00
2014,01,01,00,02,0.00
2014,01,01,00,03,0.00
2014,01,01,00,04,0.00
2014,01,01,00,05,0.00
2014,01,01,00,06,0.00
2014,01,01,00,07,0.00
2014,01,01,00,08,0.00
2014,01,01,00,09,0.00
2014,01,01,00,10,0.00
2014,01,01,00,11,0.00
2014,01,01,00,12,0.00
2014,01,01,00,13,0.00
2014,01,01,00,14,0.00
2014,01,01,00,15,0.00
2014,01,01,00,16,0.00
2014,01,01,00,17,0.00
2014,01,01,00,18,0.00
2014,01,01,00,19,0.00
2014,01,01,00,20,0.00
2014,01,01,00,21,0.00
2014,01,01,00,22,0.00
2014,01,01,00,23,0.00
2014,01,01,00,24,0.00
2014,01,01,00,25,0.00
2014,01,01,00,26,0.00
2014,01,01,00,27,0.00
2014,01,01,00,28,0.00
2014,01,01,00,29,0.00
2014,01,01,00,30,0.00
2014,01,01,00,31,0.00
2014,01,01,00,32,0.00
2014,01,01,00,33,0.00
2014,01,01,00,34,0.00
2014,01,01,00,35,0.00
2014,01,01,00,36,0.00
2014,01,01,00,37,0.00
2014,01,01,00,38,0.00
2014,01,01,00,39,0.00
2014,01,01,00,40,0.00
2014,01,01,00,41,0.00
2014,01,01,00,42,0.00
2014,01,01,00,43,0.00
2014,01,01,00,44,0.00
2014,01,01,00,45,0.00
2014,01,01,00,46,0.00
2014,01,01,00,47,0.00
2014,01,01,00,48,0.00
2014,01,01,00,49,0.00
2014,01,01,00,50,0.00
2014,01,01,00,51,0.00
2014,01,01,00,52,0.00
2014,01,01,00,53,0.00
2014,01,01,00,54,0.00
2014,01,01,00,55,0.00
2014,01,01,00,56,0.00
2014,01,01,00,57,0.00
2014,01,01,00,58,0.00
2014,01,01,00,59,0.00
2014,01,01,01,00,0.00
2014,01,01,01,01,0.00
2014,01,01,01,02,0.00
2014,01,01,01,03,0.00
2014,01,01,01,04,0.00
2014,01,01,01,05,0.00
2014,01,01,01,06,0.00
2014,01,01,01,07,0.00
2014,01,01,01,08,0.00
2014,01,01,01,09,0.00
2014,01,01,01,10,0.00
2014,01,01,01,11,0.00
2014,01,01,01,12,0.00
2014,01,01,01,13,0.00
2014,01,01,01,14,0.00
2014,01,01,01,15,0.00
2014,01,01,01,16,0.00
2014,01,01,01,17,0.00
2014,01,01,01,18,0.00
2014,01,01,01,19,0.00
2014,01,01,01,20,0.00
2014,01,01,01,21,0.00
2014,01,01,01,22,0.00
2014,01,01,01,23,0.00
2014,01,01,01,24,0.00
2014,01,01,01,25,0.00
2014,01,01,01,26,0.00
2014,01,01,01,27,0.00
2014,01,01,01,28,0.00
2014,01,01,01,29,0.00
2014,01,01,01,30,0.00
2014,01,01,01,31,0.00
2014,01,01,01,32,0.00
2014,01,01,01,33,0.00
2014,01,01,01,34,0.00
2014,01,01,01,35,0.00
2014,01,01,01,36,0.00
2014,01,01,01,37,0.00
2014,01,01,01,38,0.00
2014,01,01,01,39,0.00
2014,01,01,01,40,0.00
2014,01,01,01,41,0.00
2014,01,01,01,42,0.00
2014,01,01,01,43,0.00
2014,01,01,01,44,0.00
2014,01,01,01,45,0.00
2014,01,01,01,46,0.00
2014,01,01,01,47,0.00
2014,01,01,01,48,0.00
2014,01,01,01,49,0.00
2014,01,01,01,50,0.00
2014,01,01,01,51,0.00
2014,01,01,01,52,0.00
2014,01,01,01,53,0.00
2014,01,01,01,54,0.00
2014,01,01,01,55,0.00
2014,01,01,01,56,0.00
2014,01,01,01,57,0.00
2014,01,01,01,58,0.00
2014,01,01,01,59,0.00
2014,01,01,02,00,0.00
2014,01,01,02,01,0.00
2014,01,01,02,02,0.00
2014,01,01,02,03,0.00
2014,01,01,02,04,0.00
2014,01,01,02,05,0.00
2014,01,01,02,06,0.00
2014,01,01,02,07,0.00
2014,01,01,02,08,0.00
2014,01,01,02,09,0.00
2014,01,01,02,10,0.00
2014,01,01,02,11,0.00
2014,01,01,02,12,0.00
2014,01,01,02,13,0.00
2014,01,01,02,14,0.00
2014,01,01,02,15,0.00
2014,01,01,02,16,0.00
2014,01,01,02,17,0.00
2014,01,01,02,18,0.00
2014,01,01,02,19,0.00
2014,01,01,02,20,0.00
2014,01,01,02,21,0.00
2014,01,01,02,22,0.00
2014,01,01,02,23,0.00
2014,01,01,02,24,0.00
2014,01,01,02,25,0.00
2014,01,01,02,26,0.00
2014,01,01,02,27,0.00
2014,01,01,02,28,0.00
2014,01,01,02,29,0.00
2014,01,01,02,30,0.00
2014,01,01,02,31,0.00
2014,01,01,02,32,0.00
2014,01,01,02,33,0.00
2014,01,01,02,34,0.00
2014,01,01,02,35,0.00
2014,01,01,02,36,0.00
2014,01,01,02,37,0.00
2014,01,01,02,38,0.00
2014,01,01,02,39,0.00
2014,01,01,02,40,0.00
2014,01,01,02,41,0.00
2014,01,01,02,42,0.00
2014,01,01,02,43,0.00
2014,01,01,02,44,0.00
2014,01,01,02,45,0.00
2014,01,01,02,46,0.00
2014,01,01,02,47,0.00
2014,01,01,02,48,0.00
2014,01,01,02,49,0.00
2014,01,01,02,50,0.00
2014,01,01,02,51,0.00
2014,01,01,02,52,0.00
2014,01,01,02,53,0.00
2014,01,01,02,54,0.00
2014,01,01,02,55,0.00
2014,01,01,02,56,0.00
2014,01,01,02,57,0.00
2014,01,01,02,58,0.00
2014,01,01,02,59,0.00
2014,01,01,03,00,0.00
2014,01,01,03,01,0.00
2014,01,01,03,02,0.00
2014,01,01,03,03,0.00
2014,01,01,03,04,0.00
2014,01,01,03,05,0.00
2014,01,01,03,06,0.00
2014,01,01,03,07,0.00
2014,01,01,03,08,0.00
2014,01,01,03,09,0.00
2014,01,01,03,10,0.00
2014,01,01,03,11,0.00
2014,01,01,03,12,0.00
2014,01,01,03,13,0.00
2014,01,01,03,14,0.00
2014,01,01,03,15,0.00
2014,01,01,03,16,0.00
2014,01,01,03,17,0.00
2014,01,01,03,18,0.00
2014,01,01,03,19,0.00
2014,01,01,03,20,0.00
2014,01,01,03,21,0.00
2014,01,01,03,22,0.00
2014,01,01,03,23,0.00
2014,01,01,03,24,0.00
2014,01,01,03,25,0.00
2014,01,01,03,26,0.00
2014,01,01,03,27,0.00
2014,01,01,03,28,0.00
2014,01,01,03,29,0.00
2014,01,01,03,30,0.00
2014,01,01,03,31,0.00
2014,01,01,03,32,0.00
2014,01,01,03,33,0.00
2014,01,01,03,34,0.00
2014,01,01,03,35,0.00
2014,01,01,03,36,0.00
2014,01,01,03,37,0.00
2014,01,01,03,38,0.00
2014,01,01,03,39,0.00
2014,01,01,03,40,0.00
2014,01,01,03,41,0.00
2014,01,01,03,42,0.00
2014,01,01,03,43,0.00
2014,01,01,03,44,0.00
2014,01,01,03,45,0.00
2014,01,01,03,46,0.00
2014,01,01,03,47,0.00
2014,01,01,03,48,0.00
2014,01,01,03,49,0.00
2014,01,01,03,50,0.00
2014,01,01,03,51,0.00
2014,01,01,03,52,0.00
2014,01,01,03,53,0.00
2014,01,01,03,54,0.00
2014,01,01,03,55,0.00
2014,01,01,03,56,0.00
2014,01,01,03,57,0.00
2014,01,01,03,58,0.00
2014,01,01,03,59,0.00
2014,01,01,04,00,0.00
2014,01,01,04,01,0.00
2014,01,01,04,02,0.00
2014,01,01,04,03,0.00
2014,01,01,04,04,0.00
2014,01,01,04,05,0.00
2014,01,01,04,06,0.00
2014,01,01,04,07,0.00
2014,01,01,04,08,0.00
2014,01,01,04,09,0.00
2014,01,01,04,10,0.00
2014,01,01,04,11,0.00
2014,01,01,04,12,0.00
2014,01,01,04,13,0.00
2014,01,01,04,14,0.00
2014,01,01,04,15,0.00
2014,01,01,04,16,0.00
2014,01,01,04,17,0.00
2014,01,01,04,18,0.00
2014,01,01,04,19,0.00
2014,01,01,04,20,0.00
2014,01,01,04,21,0.00
2014,01,01,04,22,0.00
2014,01,01,04,23,0.00
2014,01,01,04,24,0.00
2014,01,01,04,25,0.00
2014,01,01,04,26,0.00
2014,01,01,04,27,0.00
2014,01,01,04,28,0.00
2014,01,01,04,29,0.00
2014,01,01,04,30,0.00
2014,01,01,04,31,0.00
2014,01,01,04,32,0.00
2014,01,01,04,33,0.00
2014,01,01,04,34,0.00
2014,01,01,04,35,0.00
2014,01,01,04,36,0.00
2014,01,01,04,37,0.00
2014,01,01,04,38,0.00
2014,01,01,04,39,0.00
2014,01,01,04,40,0.00
2014,01,01,04,41,0.00
2014,01,01,04,42,0.00
2014,01,01,04,43,0.00
2014,01,01,04,44,0.00
2014,01,01,04,45,0.00
2014,01,01,04,46,0.00
2014,01,01,04,47,0.00
2014,01,01,04,48,0.00
2014,01,01,04,49,0.00
2014,01,01,04,50,0.00
2014,01,01,04,51,0.00
2014,01,01,04,52,0.00
2014,01,01,04,53,0.00
2014,01,01,04,54,0.00
2014,01,01,04,55,0.00
2014,01,01,04,56,0.00
2014,01,01,04,57,0.00
2014,01,01,04,58,0.00
2014,01,01,04,59,0.00
2014,01,01,05,00,0.00
2014,01,01,05,01,0.00
2014,01,01,05,02,0.00
2014,01,01,05,03,0.00
2014,01,01,05,04,0.00
2014,01,01,05,05,0.00
2014,01,01,05,06,0.00
2014,01,01,05,07,0.00
2014,01,01,05,08,0.00
2014,01,01,05,09,0.00
2014,01,01,05,10,0.00
2014,01,01,05,11,0.00
2014,01,01,05,12,0.00
2014,01,01,05,13,0.00
2014,01,01,05,14,0.00
2014,01,01,05,15,0.00
2014,01,01,05,16,0.00
2014,01,01,05,17,0.00
2014,01,01,05,18,0.00
2014,01,01,05,19,0.00
2014,01,01,05,20,0.00
2014,01,01,05,21,0.00
2014,01,01,05,22,0.00
2014,01,01,05,23,0.00
2014,01,01,05,24,0.00
2014,01,01,05,25,0.00
2014,01,01,05,26,0.00
2014,01,01,05,27,0.00
2014,01,01,05,28,0.00
2014,01,01,05,29,0.00
2014,01,01,05,30,0.00
2014,01,01,05,31,0.00
2014,01,01,05,32,0.00
2014,01,01,05,33,0.00
2014,01,01,05,34,0.00
2014,01,01,05,35,0.00
2014,01,01,05,36,0.00
2014,01,01,05,37,0.00
2014,01,01,05,38,0.00
2014,01,01,05,39,0.00
2014,01,01,05,40,0.00
2014,01,01,05,41,0.00
2014,01,01,05,42,0.00
2014,01,01,05,43,0.00
2014,01,01,05,44,0.00
2014,01,01,05,45,0.00
2014,01,01,05,46,0.00
2014,01,01,05,47,0.00
2014,01,01,05,48,0.00
2014,01,01,05,49,0.00
2014,01,01,05,50,0.00
2014,01,01,05,51,0.00
2014,01,01,05,52,0.00
2014,01,01,05,53,0.00
2014,01,01,05,54,0.00
2014,01,01,05,55,0.00
2014,01,01,05,56,0.00
2014,01,01,05,57,0.00
2014,01,01,05,58,0.00
2014,01,01,05,59,0.00
2014,01,01,06,00,0.00
2014,01,01,06,01,0.00
2014,01,01,06,02,0.00
2014,01,01,06,03,0.00
2014,01,01,06,04,0.00
2014,01,01,06,05,0.00
2014,01,01,06,06,0.00
2014,01,01,06,07,0.00
2014,01,01,06,08,0.00
2014,01,01,06,09,0.00
2014,01,01,06,10,0.00
2014,01,01,06,11,0.00
2014,01,01,06,12,0.00
2014,01,01,06,13,0.00
2014,01,01,06,14,0.00
2014,01,01,06,15,0.00
2014,01,01,06,16,0.00
2014,01,01,06,17,0.00
2014,01,01,06,18,0.00
2014,01,01,06,19,0.00
2014,01,01,06,20,0.00
2014,01,01,06,21,0.00
2014,01,01,06,22,0.00
2014,01,01,06,23,0.00
2014,01,01,06,24,0.00
2014,01,01,06,25,0.00
2014,01,01,06,26,0.00
2014,01,01,06,27,0.00
2014,01,01,06,28,0.00
2014,01,01,06,29,0.00
2014,01,01,06,30,0.00
2014,01,01,06,31,0.00
2014,01,01,06,32,0.00
2014,01,01,06,33,0.00
2014,01,01,06,34,0.00
2014,01,01,06,35,0.00
2014,01,01,06,36,0.00
2014,01,01,06,37,0.00
2014,01,01,06,38,0.00
2014,01,01,06,39,0.00
2014,01,01,06,40,0.00
2014,01,01,06,41,0.00
2014,01,01,06,42,0.00
2014,01,01,06,43,0.00
2014,01,01,06,44,0.00
2014,01,01,06,45,0.00
2014,01,01,06,46,0.00
2014,01,01,06,47,0.00
2014,01,01,06,48,0.00
2014,01,01,06,49,0.00
2014,01,01,06,50,0.00
2014,01,01,06,51,0.00
2014,01,01,06,52,0.00
2014,01,01,06,53,0.00
2014,01,01,06,54,0.00
2014,01,01,06,55,0.00
2014,01,01,06,56,0.00
2014,01,01,06,57,0.00
2014,01,01,06,58,0.00
2014,01,01,06,59,0.00
2014,01,01,07,00,0.00
2014,01,01,07,01,0.00
2014,01,01,07,02,0.00
2014,01,01,07,03,0.00
2014,01,01,07,04,0.00
2014,01,01,07,05,0.00
2014,01,01,07,06,0.00
2014,01,01,07,07,0.00
2014,01,01,07,08,0.00
2014,01,01,07,09,0.00
2014,01,01,07,10,0.00
2014,01,01,07,11,0.00
2014,01,01,07,12,0.00
2014,01,01,07,13,0.00
2014,01,01,07,14,0.00
2014,01,01,07,15,0.00
2014,01,01,07,16,0.00
2014,01,01,07,17,0.00
2014,01,01,07,18,0.00
2014,01,01,07,19,0.00
2014,01,01,07,20,0.00
2014,01,01,07,21,0.00
2014,01,01,07,22,0.00
2014,01,01,07,23,0.00
2014,01,01,07,24,0.00
2014,01,01,07,25,0.00
2014,01,01,07,26,0.00
2014,01,01,07,27,0.00
2014,01,01,07,28,0.00
2014,01,01,07,29,0.00
2014,01,01,07,30,0.00
2014,01,01,07,31,0.00
2014,01,01,07,32,0.00
2014,01,01,07,33,0.00
2014,01,01,07,34,0.00
2014,01,01,07,35,0.00
2014,01,01,07,36,0.00
2014,01,01,07,37,0.00
2014,01,01,07,38,0.00
2014,01,01,07,39,0.00
2014,01,01,07,40,0.00
2014,01,01,07,41,0.00
2014,01,01,07,42,0.00
2014,01,01,07,43,0.00
2014,01,01,07,44,0.00
2014,01,01,07,45,0.00
2014,01,01,07,46,0.00
2014,01,01,07,47,0.00
2014,01,01,07,48,0.00
2014,01,01,07,49,0.00
2014,01,01,07,50,0.00
2014,01,01,07,51,0.00
2014,01,01,07,52,0.00
2014,01,01,07,53,0.00
2014,01,01,07,54,0.00
2014,01,01,07,55,0.00
2014,01,01,07,56,0.00
2014,01,01,07,57,0.00
2014,01,01,07,58,0.00
2014,01,01,07,59,0.00
2014,01,01,08,00,0.00
2014,01,01,08,01,0.00
2014,01,01,08,02,0.00
2014,01,01,08,03,0.00
2014,01,01,08,04,0.00
2014,01,01,08,05,0.00
2014,01,01,08,06,0.00
2014,01,01,08,07,0.00
2014,01,01,08,08,0.00
2014,01,01,08,09,0.00
2014,01,01,08,10,0.00
2014,01,01,08,11,0.00
2014,01,01,08,12,0.00
2014,01,01,08,13,0.00
2014,01,01,08,14,0.00
2014,01,01,08,15,0.00
2014,01,01,08,16,0.00
2014,01,01,08,17,0.00
2014,01,01,08,18,0.00
2014,01,01,08,19,0.00
2014,01,01,08,20,0.00
2014,01,01,08,21,0.00
2014,01,01,08,22,0.00
2014,01,01,08,23,0.00
2014,01,01,08,24,0.00
2014,01,01,08,25,0.00
2014,01,01,08,26,0.00
2014,01,01,08,27,0.00
2014,01,01,08,28,0.00
2014,01,01,08,29,0.00
2014,01,01,08,30,0.00
2014,01,01,08,31,0.00
2014,01,01,08,32,5.00
2014,01,01,08,33,5.00
2014,01,01,08,34,5.00
2014,01,01,08,35,5.00
2014,01,01,08,36,5.00
2014,01,01,08,37,5.00
2014,01,01,08,38,5.00
2014,01,01,08,39,6.00
2014,01,01,08,40,7.00
2014,01,01,08,41,7.00
2014,01,01,08,42,7.00
2014,01,01,08,43,7.00
2014,01,01,08,44,8.60
2014,01,01,08,45,9.00
2014,01,01,08,46,9.00
2014,01,01,08,47,9.00
2014,01,01,08,48,9.00
2014,01,01,08,49,9.00
2014,01,01,08,50,9.00
2014,01,01,08,51,9.00
2014,01,01,08,52,9.00
2014,01,01,08,53,9.00
2014,01,01,08,54,9.00
2014,01,01,08,55,9.00
2014,01,01,08,56,9.00
2014,01,01,08,57,9.00
2014,01,01,08,58,9.00
2014,01,01,08,59,9.00
2014,01,01,09,00,9.00
2014,01,01,09,01,9.00
2014,01,01,09,02,9.00
2014,01,01,09,03,9.30
2014,01,01,09,04,11.00
2014,01,01,09,05,11.00
2014,01,01,09,06,11.00
2014,01,01,09,07,11.40
2014,01,01,09,08,12.00
2014,01,01,09,09,12.00
2014,01,01,09,10,13.10
2014,01,01,09,11,14.00
2014,01,01,09,12,14.00
2014,01,01,09,13,15.50
2014,01,01,09,14,16.00
2014,01,01,09,15,16.00
2014,01,01,09,16,16.00
2014,01,01,09,17,18.00
2014,01,01,09,18,18.00
2014,01,01,09,19,18.00
2014,01,01,09,20,18.00
2014,01,01,09,21,18.00
2014,01,01,09,22,18.40
2014,01,01,09,23,19.00
2014,01,01,09,24,19.00
2014,01,01,09,25,20.10
2014,01,01,09,26,22.20
2014,01,01,09,27,23.00
2014,01,01,09,28,24.50
2014,01,01,09,29,25.80
2014,01,01,09,30,27.70
2014,01,01,09,31,28.00
2014,01,01,09,32,30.00
2014,01,01,09,33,30.30
2014,01,01,09,34,32.00
2014,01,01,09,35,32.20
2014,01,01,09,36,33.00
2014,01,01,09,37,33.00
2014,01,01,09,38,33.00
2014,01,01,09,39,34.00
2014,01,01,09,40,35.00
2014,01,01,09,41,36.20
2014,01,01,09,42,37.00
2014,01,01,09,43,38.50
2014,01,01,09,44,39.80
2014,01,01,09,45,41.70
2014,01,01,09,46,43.90
2014,01,01,09,47,46.00
2014,01,01,09,48,46.10
2014,01,01,09,49,47.40
2014,01,01,09,50,49.00
2014,01,01,09,51,49.60
2014,01,01,09,52,51.00
2014,01,01,09,53,51.00
2014,01,01,09,54,51.00
2014,01,01,09,55,49.90
2014,01,01,09,56,49.00
2014,01,01,09,57,47.60
2014,01,01,09,58,47.00
2014,01,01,09,59,47.00
2014,01,01,10,00,47.00
2014,01,01,10,01,48.90
2014,01,01,10,02,49.10
2014,01,01,10,03,51.30
2014,01,01,10,04,53.20
2014,01,01,10,05,54.50
2014,01,01,10,06,57.30
2014,01,01,10,07,61.10
2014,01,01,10,08,64.70
2014,01,01,10,09,68.00
2014,01,01,10,10,69.60
2014,01,01,10,11,72.50
2014,01,01,10,12,74.00
2014,01,01,10,13,74.00
2014,01,01,10,14,74.00
2014,01,01,10,15,74.00
2014,01,01,10,16,74.00
2014,01,01,10,17,73.80
2014,01,01,10,18,71.70
2014,01,01,10,19,69.80
2014,01,01,10,20,69.00
2014,01,01,10,21,68.30
2014,01,01,10,22,67.00
2014,01,01,10,23,67.00
2014,01,01,10,24,67.00
2014,01,01,10,25,68.10
2014,01,01,10,26,69.00
2014,01,01,10,27,69.70
2014,01,01,10,28,70.00
2014,01,01,10,29,70.00
2014,01,01,10,30,71.70
2014,01,01,10,31,72.00
2014,01,01,10,32,72.00
2014,01,01,10,33,72.00
2014,01,01,10,34,72.40
2014,01,01,10,35,74.00
2014,01,01,10,36,74.00
2014,01,01,10,37,74.80
2014,01,01,10,38,76.00
2014,01,01,10,39,76.00
2014,01,01,10,40,76.00
2014,01,01,10,41,76.60
2014,01,01,10,42,77.00
2014,01,01,10,43,77.00
2014,01,01,10,44,77.00
2014,01,01,10,45,77.00
2014,01,01,10,46,76.00
2014,01,01,10,47,73.80
2014,01,01,10,48,71.70
2014,01,01,10,49,69.80
2014,01,01,10,50,68.50
2014,01,01,10,51,67.00
2014,01,01,10,52,67.00
2014,01,01,10,53,67.00
2014,01,01,10,54,67.00
2014,01,01,10,55,65.90
2014,01,01,10,56,65.00
2014,01,01,10,57,63.60
2014,01,01,10,58,63.00
2014,01,01,10,59,62.20
2014,01,01,11,00,62.00
2014,01,01,11,01,60.10
2014,01,01,11,02,58.00
2014,01,01,11,03,58.00
2014,01,01,11,04,57.60
2014,01,01,11,05,56.00
2014,01,01,11,06,56.00
2014,01,01,11,07,56.80
2014,01,01,11,08,58.00
2014,01,01,11,09,58.00
2014,01,01,11,10,59.10
2014,01,01,11,11,60.00
2014,01,01,11,12,60.00
2014,01,01,11,13,60.00
2014,01,01,11,14,60.00
2014,01,01,11,15,58.20
2014,01,01,11,16,58.00
2014,01,01,11,17,56.00
2014,01,01,11,18,56.00
2014,01,01,11,19,56.00
2014,01,01,11,20,56.00
2014,01,01,11,21,56.00
2014,01,01,11,22,56.80
2014,01,01,11,23,58.00
2014,01,01,11,24,58.00
2014,01,01,11,25,58.00
2014,01,01,11,26,58.00
2014,01,01,11,27,58.00
2014,01,01,11,28,58.00
2014,01,01,11,29,58.00
2014,01,01,11,30,58.00
2014,01,01,11,31,58.00
2014,01,01,11,32,60.20
2014,01,01,11,33,62.00
2014,01,01,11,34,62.20
2014,01,01,11,35,63.00
2014,01,01,11,36,64.30
2014,01,01,11,37,68.10
2014,01,01,11,38,70.90
2014,01,01,11,39,74.00
2014,01,01,11,40,76.60
2014,01,01,11,41,79.50
2014,01,01,11,42,82.40
2014,01,01,11,43,83.80
2014,01,01,11,44,84.00
2014,01,01,11,45,85.70
2014,01,01,11,46,86.00
2014,01,01,11,47,85.80
2014,01,01,11,48,84.00
2014,01,01,11,49,83.80
2014,01,01,11,50,82.50
2014,01,01,11,51,81.00
2014,01,01,11,52,81.00
2014,01,01,11,53,81.00
2014,01,01,11,54,81.00
2014,01,01,11,55,81.00
2014,01,01,11,56,81.00
2014,01,01,11,57,82.40
2014,01,01,11,58,83.00
2014,01,01,11,59,83.80
2014,01,01,12,00,85.80
2014,01,01,12,01,87.90
2014,01,01,12,02,90.10
2014,01,01,12,03,91.60
2014,01,01,12,04,95.00
2014,01,01,12,05,95.50
2014,01,01,12,06,97.30
2014,01,01,12,07,98.00
2014,01,01,12,08,99.80
2014,01,01,12,09,103.00
2014,01,01,12,10,105.70
2014,01,01,12,11,108.30
2014,01,01,12,12,109.00
2014,01,01,12,13,109.00
2014,01,01,12,14,109.00
2014,01,01,12,15,107.20
2014,01,01,12,16,105.10
2014,01,01,12,17,101.60
2014,01,01,12,18,97.60
2014,01,01,12,19,94.00
2014,01,01,12,20,88.40
2014,01,01,12,21,83.00
2014,01,01,12,22,79.50
2014,01,01,12,23,76.50
2014,01,01,12,24,75.00
2014,01,01,12,25,74.00
2014,01,01,12,26,74.00
2014,01,01,12,27,75.40
2014,01,01,12,28,76.80
2014,01,01,12,29,80.30
2014,01,01,12,30,82.80
2014,01,01,12,31,84.00
2014,01,01,12,32,84.00
2014,01,01,12,33,84.00
2014,01,01,12,34,83.80
2014,01,01,12,35,82.50
2014,01,01,12,36,79.70
2014,01,01,12,37,76.60
2014,01,01,12,38,75.10
2014,01,01,12,39,75.00
2014,01,01,12,40,76.60
2014,01,01,12,41,78.30
2014,01,01,12,42,80.40
2014,01,01,12,43,83.30
2014,01,01,12,44,85.60
2014,01,01,12,45,87.80
2014,01,01,12,46,88.00
2014,01,01,12,47,87.80
2014,01,01,12,48,85.70
2014,01,01,12,49,84.00
2014,01,01,12,50,83.20
2014,01,01,12,51,80.30
2014,01,01,12,52,78.20
2014,01,01,12,53,76.50
2014,01,01,12,54,75.00
2014,01,01,12,55,72.90
2014,01,01,12,56,72.00
2014,01,01,12,57,72.00
2014,01,01,12,58,72.00
2014,01,01,12,59,70.40
2014,01,01,13,00,70.00
2014,01,01,13,01,70.00
2014,01,01,13,02,69.00
2014,01,01,13,03,68.70
2014,01,01,13,04,66.60
2014,01,01,13,05,65.00
2014,01,01,13,06,65.00
2014,01,01,13,07,65.00
2014,01,01,13,08,64.10
2014,01,01,13,09,63.00
2014,01,01,13,10,62.40
2014,01,01,13,11,60.70
2014,01,01,13,12,58.60
2014,01,01,13,13,56.50
2014,01,01,13,14,54.40
2014,01,01,13,15,54.00
2014,01,01,13,16,54.00
2014,01,01,13,17,54.00
2014,01,01,13,18,54.00
2014,01,01,13,19,53.80
2014,01,01,13,20,53.00
2014,01,01,13,21,52.30
2014,01,01,13,22,51.00
2014,01,01,13,23,50.10
2014,01,01,13,24,49.00
2014,01,01,13,25,49.00
2014,01,01,13,26,49.00
2014,01,01,13,27,49.00
2014,01,01,13,28,47.50
2014,01,01,13,29,47.00
2014,01,01,13,30,47.00
2014,01,01,13,31,47.00
2014,01,01,13,32,47.20
2014,01,01,13,33,49.00
2014,01,01,13,34,49.00
2014,01,01,13,35,49.00
2014,01,01,13,36,49.70
2014,01,01,13,37,51.00
2014,01,01,13,38,51.00
2014,01,01,13,39,52.10
2014,01,01,13,40,53.00
2014,01,01,13,41,53.60
2014,01,01,13,42,54.00
2014,01,01,13,43,54.00
2014,01,01,13,44,55.60
2014,01,01,13,45,56.00
2014,01,01,13,46,54.10
2014,01,01,13,47,54.00
2014,01,01,13,48,54.00
2014,01,01,13,49,53.80
2014,01,01,13,50,53.00
2014,01,01,13,51,52.30
2014,01,01,13,52,51.00
2014,01,01,13,53,51.00
2014,01,01,13,54,50.00
2014,01,01,13,55,49.00
2014,01,01,13,56,49.00
2014,01,01,13,57,49.00
2014,01,01,13,58,49.00
2014,01,01,13,59,49.00
2014,01,01,14,00,49.00
2014,01,01,14,01,49.00
2014,01,01,14,02,49.00
2014,01,01,14,03,49.00
2014,01,01,14,04,49.00
2014,01,01,14,05,48.50
2014,01,01,14,06,46.70
2014,01,01,14,07,45.20
2014,01,01,14,08,44.00
2014,01,01,14,09,43.00
2014,01,01,14,10,40.90
2014,01,01,14,11,40.00
2014,01,01,14,12,39.30
2014,01,01,14,13,39.00
2014,01,01,14,14,39.00
2014,01,01,14,15,37.20
2014,01,01,14,16,37.00
2014,01,01,14,17,37.20
2014,01,01,14,18,39.00
2014,01,01,14,19,39.00
2014,01,01,14,20,39.30
2014,01,01,14,21,40.00
2014,01,01,14,22,40.80
2014,01,01,14,23,42.00
2014,01,01,14,24,42.00
2014,01,01,14,25,42.00
2014,01,01,14,26,42.00
2014,01,01,14,27,42.00
2014,01,01,14,28,42.00
2014,01,01,14,29,40.40
2014,01,01,14,30,40.00
2014,01,01,14,31,40.00
2014,01,01,14,32,40.00
2014,01,01,14,33,40.00
2014,01,01,14,34,40.40
2014,01,01,14,35,42.00
2014,01,01,14,36,42.00
2014,01,01,14,37,42.00
2014,01,01,14,38,42.90
2014,01,01,14,39,44.00
2014,01,01,14,40,44.00
2014,01,01,14,41,44.00
2014,01,01,14,42,44.00
2014,01,01,14,43,44.00
2014,01,01,14,44,44.00
2014,01,01,14,45,45.80
2014,01,01,14,46,47.00
2014,01,01,14,47,47.00
2014,01,01,14,48,47.00
2014,01,01,14,49,46.80
2014,01,01,14,50,45.50
2014,01,01,14,51,44.00
2014,01,01,14,52,43.20
2014,01,01,14,53,41.10
2014,01,01,14,54,39.50
2014,01,01,14,55,39.00
2014,01,01,14,56,37.70
2014,01,01,14,57,37.00
2014,01,01,14,58,35.40
2014,01,01,14,59,35.00
2014,01,01,15,00,35.00
2014,01,01,15,01,35.00
2014,01,01,15,02,33.00
2014,01,01,15,03,33.00
2014,01,01,15,04,32.80
2014,01,01,15,05,31.40
2014,01,01,15,06,29.30
2014,01,01,15,07,28.00
2014,01,01,15,08,27.10
2014,01,01,15,09,26.00
2014,01,01,15,10,25.40
2014,01,01,15,11,25.00
2014,01,01,15,12,25.00
2014,01,01,15,13,23.50
2014,01,01,15,14,23.00
2014,01,01,15,15,23.00
2014,01,01,15,16,23.00
2014,01,01,15,17,22.80
2014,01,01,15,18,21.00
2014,01,01,15,19,21.00
2014,01,01,15,20,21.00
2014,01,01,15,21,21.00
2014,01,01,15,22,21.00
2014,01,01,15,23,21.00
2014,01,01,15,24,21.00
2014,01,01,15,25,21.00
2014,01,01,15,26,21.00
2014,01,01,15,27,21.00
2014,01,01,15,28,21.00
2014,01,01,15,29,21.00
2014,01,01,15,30,21.00
2014,01,01,15,31,21.00
2014,01,01,15,32,20.80
2014,01,01,15,33,19.00
2014,01,01,15,34,18.80
2014,01,01,15,35,18.00
2014,01,01,15,36,18.00
2014,01,01,15,37,18.00
2014,01,01,15,38,18.00
2014,01,01,15,39,18.00
2014,01,01,15,40,18.60
2014,01,01,15,41,19.00
2014,01,01,15,42,19.00
2014,01,01,15,43,19.00
2014,01,01,15,44,18.10
2014,01,01,15,45,18.00
2014,01,01,15,46,17.90
2014,01,01,15,47,16.00
2014,01,01,15,48,16.40
2014,01,01,15,49,18.00
2014,01,01,15,50,18.00
2014,01,01,15,51,18.00
2014,01,01,15,52,18.00
2014,01,01,15,53,18.00
2014,01,01,15,54,18.00
2014,01,01,15,55,18.00
2014,01,01,15,56,16.70
2014,01,01,15,57,16.00
2014,01,01,15,58,16.00
2014,01,01,15,59,16.00
2014,01,01,16,00,14.20
2014,01,01,16,01,13.90
2014,01,01,16,02,12.00
2014,01,01,16,03,12.00
2014,01,01,16,04,12.00
2014,01,01,16,05,12.00
2014,01,01,16,06,12.70
2014,01,01,16,07,14.00
2014,01,01,16,08,14.00
2014,01,01,16,09,14.00
2014,01,01,16,10,12.90
2014,01,01,16,11,12.00
2014,01,01,16,12,12.00
2014,01,01,16,13,12.00
2014,01,01,16,14,12.00
2014,01,01,16,15,11.10
2014,01,01,16,16,11.00
2014,01,01,16,17,10.80
2014,01,01,16,18,9.00
2014,01,01,16,19,9.00
2014,01,01,16,20,9.00
2014,01,01,16,21,9.00
2014,01,01,16,22,9.00
2014,01,01,16,23,8.00
2014,01,01,16,24,7.00
2014,01,01,16,25,7.00
2014,01,01,16,26,7.00
2014,01,01,16,27,7.00
2014,01,01,16,28,7.00
2014,01,01,16,29,7.00
2014,01,01,16,30,5.20
2014,01,01,16,31,5.00
2014,01,01,16,32,5.00
2014,01,01,16,33,5.00
2014,01,01,16,34,5.00
2014,01,01,16,35,5.00
2014,01,01,16,36,5.00
2014,01,01,16,37,5.00
2014,01,01,16,38,5.00
2014,01,01,16,39,2.40
2014,01,01,16,40,0.00
2014,01,01,16,41,0.00
2014,01,01,16,42,0.00
2014,01,01,16,43,0.00
2014,01,01,16,44,0.00
2014,01,01,16,45,0.00
2014,01,01,16,46,0.00
2014,01,01,16,47,0.00
2014,01,01,16,48,0.00
2014,01,01,16,49,0.00
2014,01,01,16,50,0.00
2014,01,01,16,51,0.00
2014,01,01,16,52,0.00
2014,01,01,16,53,0.00
2014,01,01,16,54,0.00
2014,01,01,16,55,0.00
2014,01,01,16,56,0.00
2014,01,01,16,57,0.00
2014,01,01,16,58,0.00
2014,01,01,16,59,0.00
2014,01,01,17,00,0.00
2014,01,01,17,01,0.00
2014,01,01,17,02,0.00
2014,01,01,17,03,0.00
2014,01,01,17,04,0.00
2014,01,01,17,05,0.00
2014,01,01,17,06,0.00
2014,01,01,17,07,0.00
2014,01,01,17,08,0.00
2014,01,01,17,09,0.00
2014,01,01,17,10,0.00
2014,01,01,17,11,0.00
2014,01,01,17,12,0.00
2014,01,01,17,13,0.00
2014,01,01,17,14,0.00
2014,01,01,17,15,0.00
2014,01,01,17,16,0.00
2014,01,01,17,17,0.00
2014,01,01,17,18,0.00
2014,01,01,17,19,0.00
2014,01,01,17,20,0.00
2014,01,01,17,21,0.00
2014,01,01,17,22,0.00
2014,01,01,17,23,0.00
2014,01,01,17,24,0.00
2014,01,01,17,25,0.00
2014,01,01,17,26,0.00
2014,01,01,17,27,0.00
2014,01,01,17,28,0.00
2014,01,01,17,29,0.00
2014,01,01,17,30,0.00
2014,01,01,17,31,0.00
2014,01,01,17,32,0.00
2014,01,01,17,33,0.00
2014,01,01,17,34,0.00
2014,01,01,17,35,0.00
2014,01,01,17,36,0.00
2014,01,01,17,37,0.00
2014,01,01,17,38,0.00
2014,01,01,17,39,0.00
2014,01,01,17,40,0.00
2014,01,01,17,41,0.00
2014,01,01,17,42,0.00
2014,01,01,17,43,0.00
2014,01,01,17,44,0.00
2014,01,01,17,45,0.00
2014,01,01,17,46,0.00